Location: Goettingen
(51.5300°N, 9.9433°E)
Time: 08:12:55
(UTC+01:00)

ISS - Pass Details

Date: 10 December 2018
Orbit: 401 x 408 km, 51.6° (Epoch: 12 December)

Event Time Altitude Azimuth Distance (km) Brightness Sun altitude
Rises 19:04:01 0° 278° (W) 2,318 1.3 -25.6°
Reaches altitude 10° 19:07:00 10° 248° (WSW) 1,453 -0.1 -26.0°
Maximum altitude 19:08:29 13° 221° (SW) 1,306 -0.7 -26.3°
Enters shadow 19:09:01 12° 211° (SSW) 1,325 -0.9 -26.3°
